[[{"header":{"parameterUnit":"m.s-1","parameterCategory":1,"la1":30.2991,"la2":30.254,"lo1":-89.0895,"lo2":-89.0444,"dy":0.0017,"dx":0.0017,"nx":28,"ny":28,"refTime":"2024-06-10T09:00:00:Z","depth":0,"parameterNumber":2,"parameterNumberName":"U-component_of_WINDS"},"data":[0,0,0,0,0,0,0,0,0,0,0,0,0,0,0,0,0,0,0,0,0,0,0,0,0,0,0,0,0,0,0,0,0,0,0,0,0,0,0,0,0,0,0,0,0,0,0,0,0,0,0,0,0,0,0,0,0,0,-4.2811,-4.2811,0,-4.2813,-4.2813,-4.2813,-4.2653,-4.2649,-4.2645,-4.2641,-4.2645,-4.2649,-4.2653,0,0,0,0,0,0,0,0,0,0,0,0,0,-4.2671,-4.2675,-4.2811,-4.2811,-4.2811,-4.2813,-4.2813,-4.2813,-4.2654,-4.2649,-4.2644,-4.2639,-4.2643,-4.2648,-4.2653,0,0,0,0,0,0,0,0,0,0,0,0,0,-4.2709,-4.2676,-4.2811,-4.2732,-4.2725,-4.2813,-4.2813,-4.2813,-4.2655,-4.2649,-4.2643,-4.2637,-4.2642,-4.2648,-4.2654,-4.2817,0,0,-4.2672,-4.2675,0,0,0,0,0,0,0,0,-4.2707,-4.2714,-4.2744,-4.2738,-4.273,-4.2726,-4.2764,-4.2814,-4.2657,-4.2682,-4.2641,-4.2634,-4.2677,-4.268,-4.2694,-4.2817,-4.2818,-4.2673,-4.2676,-4.2679,-4.2681,0,0,0,0,0,0,0,-4.2704,-4.2713,-4.2812,-4.2744,-4.2736,-4.2697,-4.2695,-4.2773,-4.2715,-4.2679,-4.2668,-4.267,-4.2672,-4.2689,-4.2693,-4.2818,-4.2672,-4.2678,-4.2681,-4.2684,-4.3074,-4.3081,0,0,0,0,0,0,-4.2712,-4.2712,-4.2811,-4.2812,-4.2702,-4.2704,-4.2702,-4.2734,-4.2714,-4.2704,-4.2675,-4.2662,-4.2681,-4.2686,-4.2692,-4.2882,-4.2679,-4.2684,-4.2688,-4.3068,-4.3076,-4.3083,0,0,0,0,0,0,-4.271,-4.2723,-4.2811,-4.2759,-4.2767,-4.2714,-4.275,-4.2737,-4.2753,-4.2711,-4.2699,-4.2703,-4.2677,-4.2684,-4.2787,-4.288,-4.2687,-4.2693,-4.306,-4.307,-4.3079,-4.3264,0,0,0,0,0,0,-4.2707,-4.2723,-4.2785,-4.2761,-4.277,-4.2907,-4.2756,-4.2742,-4.2764,-4.2747,-4.2734,-4.2725,-4.2672,-4.2779,-4.2793,-4.2885,-4.2697,-4.3051,-4.3064,-4.3076,-4.325,-4.3279,-4.3305,0,0,0,0,0,-4.2702,-4.2837,-4.2789,-4.2802,-4.2846,-4.2912,-4.2917,-4.2853,-4.2772,-4.2834,-4.2806,-4.2726,-4.2868,-4.2791,-4.2805,-4.2901,-4.3045,-4.306,-4.3075,-4.3237,-4.3274,-4.3304,0,0,0,0,0,0,-4.2874,-4.2833,-4.2778,-4.291,-4.2916,-4.2885,-4.2961,-4.2894,-4.2923,-4.2907,-4.2826,-4.2824,-4.294,-4.293,-4.2846,-4.3057,-4.2942,-4.2961,-4.306,-4.3094,-4.3121,-4.3122,-4.2702,0,0,0,0,0,-4.2927,-4.2984,-4.2945,-4.3064,-4.307,-4.3016,-4.3042,-4.2991,-4.2995,-4.2997,-4.2976,-4.2983,-4.3028,-4.306,-4.31,-4.3247,-4.3241,-4.3319,-4.3347,-4.337,-4.3388,-4.3464,-4.3498,-4.3133,-4.3133,-4.3132,0,0,-4.3038,-4.3022,-4.3063,-4.3099,-4.3097,-4.3158,-4.3019,-4.3089,-4.3133,-4.3007,-4.3103,-4.3089,-4.309,-4.3216,-4.327,-4.3211,-4.3487,-4.3389,-4.3408,-4.3413,-4.3483,-4.3518,-4.3549,-4.3143,-4.3141,-4.314,0,0,-4.3271,-4.3265,-4.3363,-4.3364,-4.3363,-4.3326,-4.335,-4.3329,-4.3314,-4.3409,-4.3315,-4.3367,-4.3448,-4.3452,-4.3466,-4.3699,-4.3626,-4.3714,-4.3859,-4.3934,-4.3963,-4.3988,-4.4072,-4.4102,-4.3731,-4.3732,-4.3732,0,-4.3409,-4.3496,-4.3423,-4.3499,-4.3517,-4.3404,-4.3504,-4.3508,-4.3522,-4.3537,-4.347,-4.3568,-4.3561,-4.3686,-4.3743,-4.3757,-4.3782,-4.3716,-4.3965,-4.3989,-4.4011,-4.409,-4.4122,-4.3742,-4.3741,-4.374,-4.3739,0,-4.3666,-4.3728,-4.3807,-4.3821,-4.3848,-4.3936,-4.3876,-4.3912,-4.3859,-4.3829,-4.3926,-4.3914,-4.3949,-4.3975,-4.3924,-4.4093,-4.4056,-4.3979,-4.3861,-4.4058,-4.4131,-4.416,-4.3758,-4.3754,-4.3751,-4.3748,0,0,-4.4009,-4.398,-4.401,-4.4015,-4.4005,-4.4051,-4.4133,-4.4167,-4.4199,-4.4211,-4.4278,-4.4348,-4.4276,-4.4291,-4.424,-4.4306,-4.4491,-4.422,-4.4219,-4.4271,-4.4676,-4.4735,-4.4771,-4.4442,-4.4448,-4.4452,-4.4676,0,-4.4235,-4.4373,-4.4309,-4.4454,-4.451,-4.4403,-4.4474,-4.4476,-4.445,-4.4493,-4.4464,-4.4515,-4.4415,-4.4424,-4.4484,-4.4456,-4.4572,-4.4439,-4.4505,-4.4508,-4.4509,-4.4809,-4.4872,-4.5084,-4.4704,-4.4709,-4.4712,0,-4.4517,-4.454,-4.4691,-4.4669,-4.4691,-4.4756,-4.4781,-4.4824,-4.4823,-4.4799,-4.4815,-4.4748,-4.4827,-4.471,-4.4818,-4.4729,-4.4751,-4.4742,-4.4748,-4.4753,-4.4623,-4.4823,-4.515,-4.5183,-4.4756,-4.4752,-4.4749,0,-4.4753,-4.4821,-4.492,-4.4927,-4.4905,-4.4953,-4.4946,-4.4939,-4.4963,-4.4984,-4.4999,-4.503,-4.5047,-4.5073,-4.5016,-4.4936,-4.5132,-4.501,-4.5115,-4.5117,-4.5162,-4.516,-4.5499,-4.5176,-4.5176,-4.5175,-4.5174,0,-4.5013,-4.511,-4.5025,-4.5087,-4.5192,-4.5116,-4.5223,-4.5204,-4.5198,-4.5254,-4.5163,-4.5217,-4.5138,-4.5185,-4.5141,-4.5237,-4.5245,-4.5228,-4.5216,-4.5237,-4.524,-4.5252,-4.5236,-4.5183,-4.5181,-4.518,-4.5178,0,-4.5295,-4.5242,-4.5343,-4.5312,-4.5307,-4.5386,-4.536,-4.5415,-4.5381,-4.5453,-4.5465,-4.5413,-4.5463,-4.5408,-4.5454,-4.5424,-4.5554,-4.552,-4.5555,-4.5545,-4.5654,-4.5645,-4.6013,-4.6058,-4.5706,-4.5709,-4.5712,0,-4.5464,-4.5536,-4.5513,-4.5543,-4.5541,-4.5591,-4.5614,-4.5542,-4.557,-4.5574,-4.5629,-4.5671,-4.5701,-4.5786,-4.5752,-4.5787,-4.5753,-4.5879,-4.5758,-4.5777,-4.5755,-4.5752,-4.5759,-4.5905,-4.5909,-4.5913,-4.5915,0,-4.5771,-4.5741,-4.5777,-4.5805,-4.5835,-4.5854,-4.5865,-4.5896,-4.5821,-4.5857,-4.5906,-4.5929,-4.5975,-4.6019,-4.6043,-4.6036,-4.5965,-4.5954,-4.598,-4.6003,-4.6021,-4.6013,-4.5623,-4.5946,-4.5943,-4.5941,-4.5939,-4.5938,-4.6002,-4.606,-4.6053,-4.6096,-4.6097,-4.611,-4.616,-4.6132,-4.6171,-4.6203,-4.6158,-4.6219,-4.6215,-4.6241,-4.6242,-4.6289,-4.6235,-4.6274,-4.6283,-4.6294,-4.631,-4.6012,-4.6294,-4.6293,-4.6292,-4.6291,-4.629,0,-4.6304,-4.6293,-4.6334,-4.6352,-4.6387,-4.6314,-4.6323,-4.6357,-4.6412,-4.6414,-4.6444,-4.6501,-4.6542,-4.6511,-4.6545,-4.6589,-4.6557,-4.6601,-4.6597,-4.6597,-4.6356,-4.6331,-4.6626,-4.6626,-4.6626,-4.6626,-4.6626,-4.6626,-4.6466,-4.656,-4.6529,-4.6624,-4.6612,-4.6671,-4.6682,-4.6693,-4.6694,-4.6761,-4.6794,-4.6773,-4.6762,-4.6794,-4.6829,-4.6818,-4.6836,-4.6891,-4.687,-4.6647,-4.6614,-4.6582,-4.6557,-4.6896,-4.6896,-4.7106,-4.7108,-4.7109]},{"header":{"parameterUnit":"m.s-1","parameterCategory":1,"la1":30.2991,"la2":30.254,"lo1":-89.0895,"lo2":-89.0444,"dy":0.0017,"dx":0.0017,"nx":28,"ny":28,"refTime":"2024-06-10T09:00:00:Z","depth":0,"parameterNumber":3,"parameterNumberName":"V-component_of_WINDS"},"data":[0,0,0,0,0,0,0,0,0,0,0,0,0,0,0,0,0,0,0,0,0,0,0,0,0,0,0,0,0,0,0,0,0,0,0,0,0,0,0,0,0,0,0,0,0,0,0,0,0,0,0,0,0,0,0,0,0,0,-3.1096,-3.1096,0,-3.1119,-3.1119,-3.1119,-3.1089,-3.1088,-3.1087,-3.1086,-3.1109,-3.111,-3.1112,0,0,0,0,0,0,0,0,0,0,0,0,0,-3.1024,-3.1026,-3.1096,-3.1096,-3.1096,-3.1119,-3.1119,-3.1119,-3.109,-3.1088,-3.1087,-3.1086,-3.1108,-3.111,-3.1112,0,0,0,0,0,0,0,0,0,0,0,0,0,-3.1052,-3.1026,-3.1096,-3.1084,-3.1084,-3.1119,-3.1119,-3.1119,-3.109,-3.1088,-3.1087,-3.1085,-3.1108,-3.111,-3.1112,-3.1159,0,0,-3.112,-3.1121,0,0,0,0,0,0,0,0,-3.1051,-3.1055,-3.1086,-3.1085,-3.1084,-3.11,-3.1102,-3.1133,-3.109,-3.1087,-3.1086,-3.1084,-3.1107,-3.1109,-3.1117,-3.116,-3.1161,-3.112,-3.1121,-3.1122,-3.1123,0,0,0,0,0,0,0,-3.1049,-3.1054,-3.1105,-3.1086,-3.1085,-3.1077,-3.1079,-3.1108,-3.1106,-3.1088,-3.1085,-3.1089,-3.1106,-3.1115,-3.1117,-3.1162,-3.112,-3.1122,-3.1123,-3.1124,-3.1242,-3.1244,0,0,0,0,0,0,-3.1048,-3.1052,-3.1104,-3.1105,-3.1063,-3.108,-3.1082,-3.1096,-3.1106,-3.1105,-3.109,-3.1087,-3.1112,-3.1115,-3.1118,-3.1172,-3.1122,-3.1125,-3.1126,-3.1241,-3.1243,-3.1244,0,0,0,0,0,0,-3.1047,-3.1053,-3.1103,-3.1078,-3.1084,-3.1083,-3.1099,-3.1098,-3.1106,-3.1107,-3.1107,-3.1099,-3.111,-3.1115,-3.1149,-3.1172,-3.1126,-3.1128,-3.1239,-3.1241,-3.1244,-3.1281,0,0,0,0,0,0,-3.1045,-3.1053,-3.1071,-3.1079,-3.1085,-3.1134,-3.11,-3.1099,-3.111,-3.1107,-3.1116,-3.1116,-3.1109,-3.1145,-3.1151,-3.1175,-3.113,-3.1236,-3.124,-3.1243,-3.1278,-3.1285,-3.1291,0,0,0,0,0,-3.1043,-3.1082,-3.1073,-3.1079,-3.1109,-3.1136,-3.1139,-3.1132,-3.1113,-3.113,-3.1131,-3.1116,-3.1169,-3.1149,-3.1155,-3.118,-3.1235,-3.1239,-3.1242,-3.1275,-3.1283,-3.1291,0,0,0,0,0,0,-3.1077,-3.1082,-3.1072,-3.1115,-3.1125,-3.1131,-3.1153,-3.1141,-3.1157,-3.1153,-3.1142,-3.1144,-3.118,-3.1184,-3.1162,-3.1225,-3.1199,-3.1204,-3.1221,-3.1229,-3.1236,-3.1233,-3.1132,0,0,0,0,0,-3.109,-3.1112,-3.1115,-3.1152,-3.1158,-3.1155,-3.1166,-3.1159,-3.1169,-3.1173,-3.1176,-3.1186,-3.1205,-3.1217,-3.1235,-3.1279,-3.1279,-3.1298,-3.1305,-3.131,-3.1314,-3.1336,-3.1344,-3.1257,-3.1257,-3.1257,0,0,-3.1116,-3.1122,-3.1136,-3.1159,-3.1166,-3.1188,-3.1159,-3.1184,-3.12,-3.1177,-3.1209,-3.1211,-3.1221,-3.126,-3.1277,-3.1264,-3.1338,-3.1315,-3.1319,-3.1321,-3.134,-3.1348,-3.1356,-3.126,-3.1259,-3.1259,0,0,-3.1175,-3.1182,-3.1213,-3.122,-3.1231,-3.1228,-3.1235,-3.1243,-3.1243,-3.1275,-3.1258,-3.1276,-3.131,-3.1317,-3.1325,-3.1384,-3.137,-3.1391,-3.1424,-3.1444,-3.1451,-3.1457,-3.1476,-3.1484,-3.1395,-3.1395,-3.1395,0,-3.1206,-3.1239,-3.123,-3.1256,-3.1266,-3.1246,-3.1276,-3.1284,-3.1299,-3.1306,-3.1292,-3.1331,-3.1337,-3.1376,-3.139,-3.1398,-3.1405,-3.1389,-3.1451,-3.1457,-3.1462,-3.1481,-3.1488,-3.1397,-3.1397,-3.1397,-3.1397,0,-3.1276,-3.1299,-3.1322,-3.1337,-3.135,-3.1378,-3.1372,-3.1386,-3.1378,-3.1376,-3.1408,-3.1414,-3.1431,-3.144,-3.1433,-3.1477,-3.1469,-3.1453,-3.1426,-3.1473,-3.149,-3.1497,-3.1401,-3.14,-3.1399,-3.1399,0,0,-3.1357,-3.1366,-3.1375,-3.138,-3.139,-3.1407,-3.1433,-3.145,-3.1461,-3.1473,-3.1493,-3.1521,-3.1506,-3.1515,-3.1508,-3.1526,-3.1571,-3.1508,-3.1508,-3.1518,-3.1618,-3.1629,-3.1638,-3.1562,-3.1563,-3.1564,-3.1617,0,-3.1414,-3.146,-3.1452,-3.1496,-3.1516,-3.1496,-3.1519,-3.1527,-3.1526,-3.1542,-3.1541,-3.156,-3.154,-3.1545,-3.1562,-3.1562,-3.159,-3.1558,-3.1579,-3.158,-3.1576,-3.1647,-3.1659,-3.1708,-3.1624,-3.1625,-3.1626,0,-3.1487,-3.15,-3.1546,-3.155,-3.1559,-3.1579,-3.1593,-3.1609,-3.1617,-3.1615,-3.1624,-3.1613,-3.1638,-3.1612,-3.1645,-3.1623,-3.1631,-3.1632,-3.1634,-3.1635,-3.1605,-3.1648,-3.1724,-3.1731,-3.1636,-3.1635,-3.1635,0,-3.154,-3.1569,-3.1599,-3.1605,-3.1612,-3.1626,-3.1629,-3.1636,-3.1646,-3.1658,-3.1664,-3.1679,-3.1686,-3.1698,-3.1691,-3.1672,-3.1724,-3.1698,-3.1722,-3.1722,-3.1733,-3.1732,-3.181,-3.1741,-3.1741,-3.1741,-3.1741,0,-3.1604,-3.1632,-3.1623,-3.1641,-3.1672,-3.1662,-3.1692,-3.1693,-3.1699,-3.1716,-3.1701,-3.1718,-3.1708,-3.1724,-3.1719,-3.1746,-3.175,-3.1748,-3.1746,-3.1749,-3.1749,-3.1753,-3.1749,-3.1743,-3.1743,-3.1742,-3.1742,0,-3.1667,-3.1662,-3.1694,-3.1697,-3.1698,-3.172,-3.1723,-3.1739,-3.1737,-3.176,-3.1764,-3.176,-3.1778,-3.1772,-3.1792,-3.1788,-3.1822,-3.1816,-3.1819,-3.1817,-3.1841,-3.1838,-3.1923,-3.1933,-3.1859,-3.186,-3.1861,0,-3.1708,-3.1729,-3.1733,-3.1744,-3.1748,-3.1766,-3.1775,-3.1766,-3.1777,-3.1786,-3.1801,-3.1818,-3.183,-3.1859,-3.1858,-3.1872,-3.1865,-3.1894,-3.1867,-3.1868,-3.1863,-3.1862,-3.1863,-3.1899,-3.19,-3.1901,-3.1901,0,-3.1779,-3.1775,-3.179,-3.1803,-3.1815,-3.1825,-3.1834,-3.1843,-3.1834,-3.1847,-3.1864,-3.1874,-3.1893,-3.1909,-3.1921,-3.1924,-3.191,-3.191,-3.1916,-3.1918,-3.1918,-3.1916,-3.1832,-3.1908,-3.1907,-3.1906,-3.1906,-3.1906,-3.1831,-3.1848,-3.1853,-3.1869,-3.1875,-3.1883,-3.1898,-3.1897,-3.1912,-3.1926,-3.192,-3.1939,-3.1945,-3.196,-3.1965,-3.1979,-3.1968,-3.1978,-3.198,-3.1982,-3.1984,-3.1917,-3.1982,-3.1982,-3.1982,-3.1981,-3.1981,0,-3.19,-3.1902,-3.1917,-3.1929,-3.1941,-3.1928,-3.1937,-3.1948,-3.1965,-3.1972,-3.1984,-3.2003,-3.2018,-3.2017,-3.2031,-3.2042,-3.2036,-3.2046,-3.2044,-3.2045,-3.1994,-3.1986,-3.205,-3.205,-3.205,-3.205,-3.205,-3.205,-3.1937,-3.1964,-3.1961,-3.199,-3.1992,-3.2011,-3.2016,-3.2023,-3.2028,-3.205,-3.2062,-3.2061,-3.2065,-3.2078,-3.209,-3.209,-3.2095,-3.2106,-3.2103,-3.2055,-3.2049,-3.2042,-3.2035,-3.2108,-3.2108,-3.2152,-3.2153,-3.2153]}]]